Location: Salillas
(41.9950°N, 0.2228°W)
Time: 08:10:59
(UTC+00:00)

Terra - Pass Details

Date: 29 March 2020
Orbit: 701 x 703 km, 98.2° (Epoch: 03 June)

Event Time Altitude Azimuth Distance (km) Brightness Sun altitude
Exits shadow 22:27:52 17° 333° (NNW) 1,744 4.4 -39.1°
Drops below altitude 10° 22:29:00 10° 337° (NNW) 2,178 5.0 -39.2°
Sets 22:31:20 0° 342° (NNW) 3,102 6.0 -39.4°
